Weather History for Tuscaloosa, AL

Change the Weather History Date:

Wednesday, January 29, 2014

  Actual Average Record
Temperature  
Mean Temperature 24 °F 45 °F  
Max Temperature 33 °F 57 °F 79 °F (1975)
Min Temperature 14 °F 34 °F 6 °F (1966)
Degree Days  
Heating Degree Days 41 20  
Month to date heating degree days 769 594  
Since 1 July heating degree days 1773 1595  
Moisture  
Dew Point 3 °F    
Average Humidity 46    
Maximum Humidity 67    
Minimum Humidity 25    
Precipitation  
Precipitation 0.00 in 0.20 in 2.15 in (1960)
Month to date precipitation 2.09 4.95  
Year to date precipitation 2.09 4.95  
Sea Level Pressure  
Sea Level Pressure 30.42 in    
Wind  
Wind Speed 4 mph (North)    
Max Wind Speed 14 mph    
Max Gust Speed 16 mph    
Visibility 10 miles    
Events      
T = Trace of Precipitation, MM = Missing Value Source: NWS Daily Summary

Daily Weather History Graph

Daily Weather History Graph

Search for Another Location

Airport:

Trip Planner

Search our weather history database for the weather conditions in past years. The results will help you decide how hot, cold, wet, or windy it might be!

Date:

Astronomy

Jan. 29, 2014 Rise Set
Actual Time 6:48 AM CST 5:19 PM CST
Civil Twilight 6:21 AM CST 5:45 PM CST
Nautical Twilight 5:52 AM CST 6:15 PM CST
Astronomical Twilight 5:22 AM CST 6:44 PM CST
Moon 5:23 AM CST (1/29) 4:18 PM CST (1/29)
Length of Visible Light 11h 23m
Length of Day
10h 31m
Waning Crescent, 2% of the Moon is Illuminated
Jan 29
Waning Crescent
Jan 30
New
Feb 6
First Quarter
Feb 14
Full
Feb 22
Last Quarter

Hourly Weather History & Observations

Time (CST) Temp. Windchill Dew Point Humidity Pressure Visibility Wind Dir Wind Speed Gust Speed Precip Events Conditions
12:53 AM 19.0 °F 6.8 °F 1.0 °F 46% 30.42 in 10.0 mi North 11.5 mph - N/A   Clear
1:53 AM 18.0 °F 8.7 °F 1.0 °F 48% 30.42 in 10.0 mi North 6.9 mph - N/A   Clear
2:53 AM 18.0 °F 9.8 °F 1.9 °F 50% 30.42 in 10.0 mi North 5.8 mph - N/A   Clear
3:53 AM 17.1 °F 6.6 °F 1.0 °F 50% 30.41 in 10.0 mi North 8.1 mph - N/A   Clear
4:53 AM 16.0 °F 8.8 °F 1.0 °F 52% 30.42 in 10.0 mi North 4.6 mph - N/A   Clear
5:53 AM 15.1 °F 7.7 °F 1.0 °F 54% 30.43 in 10.0 mi North 4.6 mph - N/A   Clear
6:53 AM 14.0 °F 6.5 °F 1.0 °F 56% 30.45 in 10.0 mi North 4.6 mph - N/A   Clear
7:53 AM 15.1 °F 6.4 °F 1.0 °F 54% 30.47 in 10.0 mi North 5.8 mph - N/A   Clear
8:53 AM 18.0 °F 7.7 °F -0.9 °F 44% 30.48 in 10.0 mi North 8.1 mph - N/A   Clear
9:53 AM 21.9 °F 12.5 °F -0.0 °F 38% 30.50 in 10.0 mi North 8.1 mph - N/A   Clear
10:53 AM 24.1 °F 15.2 °F -0.0 °F 35% 30.48 in 10.0 mi NNE 8.1 mph - N/A   Clear
11:53 AM 27.0 °F 18.7 °F 1.0 °F 33% 30.48 in 10.0 mi North 8.1 mph - N/A   Clear
12:53 PM 28.9 °F 22.8 °F 3.9 °F 35% 30.45 in 10.0 mi NNE 5.8 mph - N/A   Clear
1:53 PM 30.0 °F 24.1 °F 3.0 °F 32% 30.43 in 10.0 mi NE 5.8 mph - N/A   Clear
2:53 PM 32.0 °F 27.5 °F 3.0 °F 29% 30.41 in 10.0 mi NNE 4.6 mph - N/A   Clear
3:53 PM 32.0 °F - -0.0 °F 26% 30.40 in 10.0 mi Calm Calm - N/A   Clear
4:53 PM 30.9 °F - 1.9 °F 29% 30.39 in 10.0 mi Calm Calm - N/A   Clear
5:53 PM 27.0 °F - 7.0 °F 43% 30.38 in 10.0 mi Calm Calm - N/A   Clear
6:53 PM 26.1 °F - 6.1 °F 43% 30.39 in 10.0 mi Calm Calm - N/A   Clear
7:53 PM 21.9 °F - 9.0 °F 58% 30.39 in 10.0 mi Calm Calm - N/A   Clear
8:53 PM 19.9 °F - 10.0 °F 65% 30.40 in 10.0 mi Calm Calm - N/A   Clear
9:53 PM 19.0 °F - 10.0 °F 68% 30.39 in 10.0 mi Calm Calm - N/A   Clear
10:53 PM 18.0 °F - 9.0 °F 68% 30.38 in 10.0 mi Calm Calm - N/A   Clear
11:53 PM 16.0 °F - 9.0 °F 74% 30.37 in 10.0 mi Calm Calm - N/A   Clear